Location: De Har
(53.3413°N, 6.6858°E)
Time: 08:43:15
(UTC+00:00)

USA 281 - Pass Details

Date: 22 April 2026
Orbit: 1079 x 1080 km, 106.0° (Epoch: 5 January)

Event Time Altitude Azimuth Distance (km) Brightness Sun altitude
Exits shadow 00:51:27 19° 145° (SE) 2,323 4.6 -22.3°
Maximum altitude 00:56:24 84° 60° (ENE) 1,094 3.2 -22.1°
Drops below altitude 10° 01:03:01 10° 333° (NNW) 2,933 6.0 -21.7°
Sets 01:05:32 0° 333° (NNW) 3,893 6.7 -21.5°
